SCP
0 0 0 0 0 0 0 0 0 0 0 0 0 0 0 0 0 0 0 0 0 0 0 0 0 0 0 0 0 0 0 0 0 0 0 0 -0 0 0 0 0 0 0 0
0 0 0 0 0 0 0 0 0 0 0 0 0 0 0 0 0 0 0 0 0 0 0 0 0 0 0 0 0 0 0 0 0 0 0 0 0 0 0 0 0 0 0 0
0 0 0 0 0 0 0 0 0 0 0 0 0 0 0 0 0 0 0 0 0 0 0 0 0 0 0 0 0 0 0 0 0 0 0 0 0 0 0 0 0 0 0 0
0 0 0 0 0 0 0 0 0 0 0 0 0 0 0 0 0 0 0 0 0 0 0 0 0 0 0 0 0 0 0 0 0 0 0 0 0 0 0 0 0 0 0 0
0 0 0 0 0 0 0 0 0 0 0 0 0 0 0 0 0 0 0 0 0 0 0 0 0 0 0 0 0 0 0 0 0 0 0 0 0 0 0 0 0 0 0 0
0 0 0 0 0 0 0 0 0 0 0 0 0 0 0 0 0 0 0 0 0 0 0 0 0 0 -0 0 -0 -0 0 0 0 0 0 0 0 0 -0 -0 -0 0 0 0
0 0 0 0 0 0 0 0 0 0 0 0 0 0 0 0 0 0 0 0 0 0 0 0 0 0 0 -0 -0 0 0 0 0 0 0 0 -0 -0 -0 -0 -0 -0 -0 0
0 0 0 0 0 0 0 0 0 0 0 0 0 0 0 0 0 0 0 0 0 0 -0 -0 -0 -0 -0 0 0 0 0 0 0 0 0 0 -0 -0 -0 -0 0 0 0 0
0 0 0 0 0 0 0 0 0 0 0 0 0 0 0 0 0 0 0 0 -0 -0 -0 -0 -0 -0 0 0 0 0 0 0 0 0 0 0 0 0 0 0 0 0 0 0
0 0 0 0 0 0 0 0 0 0 0 0 0 0 0 0 0 0 0 0 -0 -0 -0 -0 -0 0 0 0 0 0 0 0 0 0 0 0 0 0 0 0 0 0 0 0
0 0 0 0 0 0 0 0 0 0 0 0 0 0 0 0 0 0 0 -0 -0 -0 -0 -0 0 0 0 0 0 0 0 0 0 0 0 0 0 0 0 0 0 0 0 0
0 0 0 0 0 0 0 0 0 0 0 0 0 0 0 0 0 0 0 -0 -0 -0 -0 0 0 0 0 0 0 0 -0 0 0 0 0 0 0 0 0 0 0 0 0 0
0 0 0 0 0 0 0 0 0 0 0 0 0 0 0 0 0 0 0 -0 -0 0 0 0 0 0 0 0 -0 -0 -0 0 0 0 0 0 0 0 0 0 0 0 0 0
0 0 0 0 0 0 0 0 0 0 0 0 0 0 0 0 0 0 0 0 0 0 0 0 0 0 0 0 0 -0 -0 0 0 0 0 0 0 0 0 0 0 0 0 0
0 0 0 0 0 0 0 0 0 0 0 0 0 0 0 0 0 0 0 0 0 0 0 0 0 0 0 0 0 -0 0 0 0 0 0 0 0 0 0 0 0 0 0 0
0 0 0 0 0 0 0 0 0 0 0 0 0 0 0 0 0 0 0 0 0 0 0 0 0 0 0 0 0 0 0 0 0 0 0 0 0 0 0 0 0 0 0 0
0 0 0 0 0 0 0 0 0 0 0 0 0 0 0 0 0 0 0 0 0 0 0 0 0 0 0 0 0 0 0 0 0 0 0 0 0 0 0 0 0 0 0 0
0 0 0 0 0 0 0 0 0 0 0 0 0 0 0 0 0 0 0 0 0 0 0 0 0 0 0 0 0 0 0 0 0 0 0 0 0 0 0 0 0 0 0 0
0 0 0 0 0 0 0 0 0 0 0 0 0 0 0 0 0 0 0 0 0 0 0 0 0 0 0 0 0 0 0 0 0 0 0 0 0 0 0 0 0 0 0 0
0 0 0 0 0 0 0 0 0 0 0 0 0 0 0 0 0 0 0 0 0 0 0 0 0 0 0 0 0 0 0 0 0 0 0 0 0 0 0 0 0 0 0 0
0 0 0 0 0 0 0 0 0 0 0 0 0 0 0 0 0 0 0 0 0 0 0 0 0 0 0 0 0 0 0 0 0 0 0 0 0 0 0 0 0 0 0 0
0 0 0 0 0 0 0 0 0 0 0 0 0 0 0 0 0 0 0 0 0 0 0 0 0 0 0 0 0 0 0 0 0 0 0 0 0 0 0 0 0 0 0 0
0 0 0 0 0 0 0 0 0 0 0 0 0 0 0 0 0 0 0 0 0 0 0 0 0 0 0 0 0 0 0 0 0 0 0 0 0 0 0 0 0 0 0 0
0 0 0 0 0 0 0 0 0 0 0 0 0 0 0 0 0 0 0 0 0 0 0 0 0 0 0 0 0 0 0 0 0 0 0 0 0 0 0 0 0 0 0 0
0 0 0 0 0 0 0 0 0 0 0 0 0 0 0 0 0 0 0 0 0 0 0 0 0 0 0 0 0 0 0 0 0 0 0 0 0 0 0 0 0 0 0 0
0 0 0 0 0 0 0 0 0 0 0 0 0 0 0 0 0 0 0 0 0 0 0 0 0 0 0 0 0 0 0 0 0 0 0 0 0 0 0 0 0 0 0 0
Wind_Speed
6 9 6 6 4 1 1 1 2 1 4 6 11 10 6 5 7 8 9 10 11 11 11 11 10 10 10 11 12 12 13 12 10 7 7 7 7 8 8 9 13 15 16 17
8 6 6 3 6 7 4 3 3 5 6 7 10 8 5 6 7 8 8 9 10 11 13 13 13 12 13 14 14 15 15 14 12 8 5 3 3 4 5 6 9 12 15 16
7 3 4 6 8 7 4 1 1 4 6 5 9 4 4 6 9 10 8 8 9 12 13 13 12 12 12 13 14 15 15 15 14 11 6 5 4 4 5 8 10 13 16 16
6 5 6 7 5 4 4 4 4 4 2 3 5 4 3 4 8 10 9 10 10 11 11 11 12 12 12 11 11 13 14 15 14 12 7 7 7 6 6 6 8 13 15 16
4 4 6 6 5 4 6 8 6 4 4 1 1 5 1 2 6 7 7 8 10 11 11 11 11 11 10 10 11 11 13 12 13 11 9 8 7 6 7 9 11 12 13 15
3 2 3 4 4 4 7 7 4 4 4 1 1 5 2 3 3 4 7 8 10 11 12 10 10 11 10 11 11 12 13 12 11 11 11 10 10 12 14 14 12 12 12 13
8 4 6 4 7 9 10 8 8 9 6 4 3 8 4 3 3 5 6 8 9 10 10 10 12 13 14 14 13 13 14 13 13 13 13 12 12 13 13 14 14 15 13 13
7 6 6 5 3 3 5 5 4 2 5 7 4 5 5 3 2 4 5 6 9 10 9 10 12 13 14 15 15 14 14 14 15 15 15 13 14 12 12 14 15 15 13 13
4 6 6 4 2 2 3 2 2 4 4 5 3 4 5 2 5 6 7 8 9 9 9 9 11 12 13 14 14 15 16 17 18 17 16 14 15 15 15 16 15 13 14 15
1 4 6 6 3 4 1 1 4 1 3 6 4 2 2 7 8 8 9 9 9 9 9 10 12 15 15 15 15 16 18 19 18 18 16 15 16 16 16 16 18 18 18 17
3 1 6 5 3 3 4 4 3 0 2 3 5 1 3 4 6 8 9 9 9 11 12 13 14 15 16 16 17 18 18 18 18 18 17 17 16 16 16 16 18 18 17 18
3 2 4 6 4 2 2 3 3 1 5 2 3 3 4 3 5 6 8 8 7 8 9 10 12 14 15 17 17 18 18 18 18 18 18 17 17 17 16 17 19 19 19 17
2 3 4 5 3 7 5 2 1 2 1 2 2 4 2 7 10 12 14 13 10 11 13 12 13 14 15 16 18 18 18 18 18 17 17 17 17 17 17 17 18 20 20 18
3 1 3 4 2 4 6 5 2 1 0 2 3 8 8 13 15 16 15 11 9 12 14 15 15 15 15 16 17 17 17 16 17 16 16 16 16 17 17 17 17 18 19 19
4 1 3 4 2 2 2 4 2 3 3 1 5 6 6 9 10 10 8 8 11 14 15 16 16 16 15 16 15 15 16 16 16 15 14 13 14 14 15 15 16 16 16 17
3 1 3 4 4 4 4 6 5 4 2 2 4 5 6 9 8 12 7 10 13 13 14 15 16 16 16 15 15 15 15 15 15 15 14 13 13 14 14 14 13 14 14 14
2 2 1 4 5 3 2 2 2 1 1 1 3 6 9 9 13 12 6 10 13 13 13 14 14 14 14 13 13 14 14 14 14 14 14 14 13 13 13 14 13 13 12 11
3 2 2 2 5 1 4 2 1 3 2 3 5 7 7 7 10 2 5 8 10 11 11 11 12 13 12 11 11 11 11 12 13 13 14 14 13 13 13 13 13 12 9 9
3 4 3 2 2 6 2 3 3 3 5 3 5 8 8 9 6 2 6 9 8 7 7 7 8 9 10 11 11 10 10 11 12 13 14 14 13 13 12 13 13 10 9 9
3 4 4 3 1 6 5 5 4 1 5 4 4 6 8 10 9 3 8 9 6 6 6 7 8 8 10 11 10 9 10 11 12 13 13 13 13 12 11 12 12 10 9 10
0 2 3 3 4 8 6 5 1 1 6 6 3 4 5 4 5 8 8 7 6 7 7 8 8 7 8 10 10 9 9 11 12 13 13 13 12 12 10 10 10 10 9 9
7 5 5 4 3 9 5 1 2 6 4 2 1 2 5 6 7 8 8 7 8 8 9 9 8 9 9 9 9 9 10 11 12 13 13 13 12 11 11 10 10 9 9 8
7 8 7 9 8 5 3 3 3 3 1 1 1 3 4 4 5 8 7 6 7 8 8 7 7 8 8 8 9 9 11 12 13 13 12 11 12 10 11 10 9 9 8 8
3 3 4 3 5 3 3 3 2 1 2 2 1 2 1 2 4 5 7 8 7 7 6 7 8 8 8 8 10 9 10 12 12 12 11 10 9 10 9 9 9 9 8 9
5 4 3 3 4 1 1 1 2 3 3 2 0 1 2 3 4 4 5 6 6 8 7 7 7 7 8 8 9 11 11 10 10 10 10 9 9 8 7 8 8 10 7 11
4 6 6 6 5 4 4 2 3 3 3 2 0 2 5 5 4 4 4 5 5 6 6 7 7 9 9 9 10 10 10 10 9 10 10 8 7 6 6 6 7 13 14 18
Wind_Direction
39 54 23 334 341 344 279 304 319 301 20 66 105 103 82 64 65 57 45 37 32 22 4 1 357 352 353 353 353 351 348 344 342 342 348 353 355 349 344 342 340 337 335 331
46 30 334 23 39 45 40 59 5 326 2 72 98 87 71 56 58 53 47 37 25 15 6 1 356 353 353 353 352 351 345 336 330 323 316 314 314 312 316 321 333 334 333 327
84 344 359 52 36 17 2 127 277 290 341 80 111 86 80 54 54 48 38 32 22 17 4 357 356 353 354 357 354 351 344 339 332 325 320 320 315 314 338 343 339 334 329 324
56 8 30 38 25 11 301 257 266 262 299 244 166 165 168 90 53 33 21 21 15 7 359 353 355 355 357 354 351 347 344 341 338 336 339 341 346 338 331 327 324 325 324 321
49 23 31 18 342 339 276 285 284 253 185 260 343 121 170 69 46 17 10 14 10 2 352 348 354 353 350 347 346 342 340 338 340 346 348 345 341 330 325 327 324 322 320 317
45 50 39 339 332 331 316 345 20 59 82 49 347 127 46 24 46 18 10 10 5 354 347 348 355 352 347 345 344 343 342 341 348 354 353 347 342 336 333 331 325 322 317 313
359 10 359 4 4 1 17 30 18 5 6 278 60 93 124 104 76 44 17 6 356 345 342 352 357 351 347 345 345 345 345 349 356 357 354 346 344 338 333 331 326 321 315 312
19 340 342 358 28 348 7 72 89 294 275 292 19 116 151 143 77 33 15 3 350 343 346 358 355 349 345 344 345 346 348 352 355 355 350 345 347 342 335 331 324 317 310 306
31 297 312 329 336 75 18 47 159 179 275 276 269 139 174 61 21 11 360 352 344 339 346 353 351 349 344 344 346 347 352 354 354 351 346 344 345 340 333 328 321 316 310 305
107 287 296 311 11 14 41 125 62 67 287 285 289 117 360 357 348 348 343 338 336 342 350 354 356 354 351 351 353 356 359 354 350 348 345 343 340 336 330 326 322 317 310 304
48 265 310 356 43 334 359 48 59 2 216 246 287 4 46 11 350 340 331 336 343 349 352 354 355 354 353 356 357 355 354 352 348 345 342 341 339 335 331 330 327 322 315 309
13 109 287 279 286 345 66 85 93 337 291 258 252 216 78 19 331 323 329 338 347 349 348 350 353 354 354 355 354 353 353 350 346 343 342 342 340 336 336 340 339 335 328 320
21 91 336 345 354 8 22 35 141 162 176 267 262 271 2 354 349 349 350 353 357 356 354 356 355 354 354 355 353 350 350 347 343 342 343 343 343 339 342 346 348 348 345 341
84 95 191 240 290 332 312 312 288 126 107 301 284 298 325 350 344 339 342 350 353 352 354 355 353 352 354 356 351 346 344 341 340 340 341 343 343 343 346 348 350 354 354 355
79 17 294 284 357 356 329 336 9 83 103 171 285 290 310 320 307 312 330 349 351 350 353 354 352 350 353 353 347 344 338 337 336 335 335 337 340 341 343 347 350 353 359 2
77 63 348 315 13 24 50 22 48 73 76 310 307 294 287 293 304 331 360 357 350 350 352 352 351 349 350 348 343 340 337 336 337 337 336 336 341 343 343 344 347 351 356 2
68 86 29 287 332 60 2 355 31 1 345 286 272 270 291 310 328 331 358 355 350 349 352 352 350 347 344 340 337 334 334 334 339 340 338 339 341 344 345 346 347 348 350 356
120 117 136 305 17 329 240 217 219 266 228 203 253 271 282 294 300 349 34 358 350 352 354 354 349 342 335 330 331 330 331 336 339 342 342 340 342 343 344 347 347 344 343 348
129 137 110 84 333 284 257 264 254 260 255 210 274 294 310 320 305 141 33 10 354 3 2 353 344 332 327 328 328 328 333 339 342 343 341 340 340 343 348 347 345 343 344 347
72 90 108 114 257 261 242 254 269 256 276 250 283 309 324 342 342 325 8 4 6 13 1 350 338 329 331 331 331 328 333 341 342 340 337 338 340 340 348 349 344 343 348 355
181 71 125 171 229 266 250 266 51 91 272 292 321 330 328 321 289 321 350 355 10 11 357 344 333 326 324 328 333 331 334 340 338 338 338 339 341 339 347 346 345 343 348 354
185 173 192 163 209 261 250 256 175 237 256 287 317 301 291 285 310 335 343 353 7 0 351 342 335 330 325 326 335 338 339 336 338 338 339 338 341 345 350 341 342 344 346 345
194 189 185 187 211 227 233 224 218 226 250 175 217 276 287 303 330 340 346 358 1 351 340 333 329 326 326 327 336 338 338 338 340 339 339 338 345 346 346 342 342 343 349 344
254 165 154 225 257 238 210 204 216 154 152 156 190 280 309 334 341 353 353 353 350 341 335 330 333 332 329 331 340 335 335 340 339 338 338 342 347 346 343 346 349 347 349 349
225 170 171 241 277 306 219 256 182 153 138 133 325 26 59 35 23 9 349 343 337 338 332 333 327 321 325 331 333 332 335 334 333 334 334 334 344 336 335 341 343 347 341 353
205 175 173 216 218 197 254 266 180 171 159 165 156 69 63 59 33 3 342 330 326 327 325 324 324 332 332 328 325 324 326 326 327 337 335 330 334 333 334 328 335 343 348 352